Flag for India Weather past 2 weeks in Lucknow, Uttar Pradesh, India

Now
43 °F

Fog.


Feels Like: 43 °F
Forecast: 41 / 67 °F
Wind: No wind

Location: Lucknow / Amausi

Current Time: Dec 27, 2014 at 7:55:39 AM

Latest Report: Dec 27, 2014 at 7:00 AM


Visibility: 0 mi

Pressure: 30.04 "Hg

Humidity: 100%

Dew point: 43 °F

Location of LucknowLocation

Historic Weather in Lucknow — Graph

°F

Lucknow temperature yesterday

Maximum temperature yesterday: 61 °F (at 2:30 PM)
Minimum temperature yesterday: 45 °F (at 5:30 AM)
Average temperature yesterday: 52 °F

Past Weeks' High & Low Weather Summary

 TemperatureHumidityPressure
High72 °F (Dec 12, 12:30 PM)100% (Dec 12, 6:30 AM)30.24 "Hg (Dec 12, 6:30 AM)
Low36 °F (Dec 24, 7:00 AM)29% (Dec 12, 1:00 PM)29.95 "Hg (Dec 26, 4:30 PM)
Average57 °F79%30.06 "Hg
* Reported Dec 12 6:30 AM — Dec 27 6:30 AM, Lucknow, Weather by CustomWeather, © 2014

Note: Actual official high and low records may vary slightly from our data, if they occured in-between our weather recording intervals... More about our weather records

Advertising

Lucknow weather history for previous 24 hours

 ConditionsComfort  
Time TempWeatherWind HumidityBarometerVisibility
6:30 AM
Dec 27
43 °FFog.No wind100%30.01 "Hg0 mi
6:00 AM43 °FFog.No wind100%30.01 "Hg0 mi
5:30 AM43 °FFog.No wind100%29.98 "Hg0 mi
5:00 AM43 °FFog.No wind100%29.98 "Hg0 mi
3:00 AM45 °FFog.No wind93%29.95 "Hg0 mi
1:00 AM46 °FFog.No wind93%29.98 "Hg0 mi
12:00 AM46 °FFog.No wind93%29.98 "Hg0 mi
11:00 PM
Dec 26
48 °FFog.No wind94%29.98 "Hg1 mi
10:00 PM50 °FFog.No wind88%30.01 "Hg1 mi
9:00 PM50 °FFog.No wind88%30.01 "Hg1 mi
8:30 PM52 °FFog.No wind82%29.98 "Hg1 mi
8:00 PM50 °FFog.2 mph82%29.98 "Hg1 mi
7:00 PM52 °FFog.2 mph82%29.98 "Hg1 mi
6:00 PM54 °FFog.2 mph72%29.98 "Hg1 mi
5:30 PM57 °FHaze.2 mph67%29.98 "Hg1 mi
5:00 PM59 °FHaze.2 mph63%30.01 "Hg1 mi
4:30 PM59 °FHaze.5 mph63%29.95 "Hg1 mi
4:00 PM61 °FHaze.5 mph59%29.98 "Hg1 mi
3:00 PM61 °FHaze.6 mph59%29.98 "Hg1 mi
2:30 PM61 °FHaze.6 mph59%29.98 "Hg1 mi
2:00 PM59 °FHaze.5 mph63%30.01 "Hg1 mi
12:30 PM55 °FFog.3 mph67%30.04 "Hg1 mi
11:30 AM54 °FClear.3 mph77%30.07 "Hg1 mi
10:00 AM46 °FFog.3 mph93%30.09 "Hg0 mi
9:30 AM45 °FDense fog.2 mph100%30.07 "Hg0 mi
9:00 AM45 °FFog.2 mph100%30.07 "Hg0 mi
8:00 AM45 °FFog.2 mph93%30.04 "Hg0 mi
7:30 AM45 °FFog.No wind93%30.04 "Hg0 mi
7:00 AM45 °FFog.No wind93%30.01 "Hg0 mi
Weather by CustomWeather, © 2014

See weather overviewHow to use our weather pages